Погода в Кутна Горе

Чехия     49°57′03″N   15°16′25″E
темп.,
°C
ветер,
м/с
пор.,
м/с
влажн.,
%
обл.,
%
осадки,
мм/ч
давл.,
гПа
погр.,
м
11 мая, вт
вт1123:00+15вюв358972 0.0 101082
02:00+13вюв369114 0.0 1008103
05:00+12юв238887 0.0 100839
08:00+16юв410745 0.0 1007578
11:00+20ююв710565 0.0 1006913
14:00+22ююв811595 0.0 10051086
17:00+23юв813625 0.0 10031004
20:00+20ююв1019611 0.0 1002644
12 мая, ср
ср1223:00+19ююв916564 0.0 1003507
02:00+14юз6118196 0.0 1007568
05:00+13зюз5980100 0.0 1007527
08:00+13з3785100 0.1 1009543
11:00+14зсз3486100 0.1 1009486
14:00+15сз4484100 0.3 1008737
17:00+16зсз338392 0.7 1006497
20:00+14сз3596100 1.4 1005194
13 мая, чт
чт1323:00+13сз2398100 1.2 1004135
02:00+13з1299100 3.9 100379
05:00+11зюз2297100 0.0 100133
08:00+13з2494100 0.3 1001335
11:00+12зюз3594100 0.3 1001373
14:00+11з5993100 0.5 1001525
17:00+10зюз51092100 0.3 1001632
20:00+9зюз71293100 1.5 1002701
14 мая, пт
пт1423:00+8зюз71294100 0.9 1002645
02:00+8з71295100 4.1 1002584
05:00+8з71195100 2.1 1003557
08:00+8з61092100 2.1 1004535
11:00+9з6990100 0.0 1006657
14:00+10з5985100 0.0 1007777
17:00+11з5781100 0.0 1008652
20:00+10зсз388197 0.0 1008448
15 мая, сб
сб1523:00+7юз229168 0.0 101020
02:00+7ююз229253 0.0 101023
05:00+6юз22935 0.0 101024
08:00+10з34825 0.0 1011389
11:00+15зсз346847 0.1 10101086
14:00+18сз345298 0.4 10092005
17:00+17с226195 0.0 1008553
20:00+13вюв3577100 0.2 100877